sat.trackr.live / text

‹ back to catalog

ONEWEB-0135

NORAD 47281 · 2020-100Z

PAYLOAD ACTIVE UNKNOWN

§ Identity

Operator
Country
UK
Launch date
2020-12-18
Launch site
VOSTO
Launch vehicle
Mass (kg)
RCS (m²)

Purposes: comms

External: N2YO · Heavens-Above · Gunter

§ Orbital elements

Epoch: 2026-05-25T01:45:12.777984Z

Period
109.72 min
Inclination
87.8951°
Eccentricity
0.0001547
Mean motion
13.12442557 rev/d
Perigee alt
1,212.6 km
Apogee alt
1,214.9 km
Semi-major
7,591.9 km
B*
-1.1207e-3
RAAN
355.2668°
Arg perigee
78.8083°
Mean anomaly
281.3219°
Rev number
26,170

§ Raw data

ONEWEB-01351 47281U 20100Z   26145.07306456 -.00000390  00000+0 -11207-2 0  99902 47281  87.8951 355.2668 0001547  78.8083 281.3219 13.12442557261704

JSON: /api/v1/satellites/47281 · /tle

For live sub-satellite position, see the globe view (requires WebGL).

§ Visibility from observer

Set your observer location to see the next 7 days of passes ≥ 10°. The values pass through the URL so the page stays shareable.

No JS? Fill the form by hand. The geolocation button needs JavaScript.